Time,TemperatureF,DewpointF,PressureIn,WindDirection,WindDirectionDegrees,WindSpeedMPH,WindSpeedGustMPH,Humidity,HourlyPrecipIn,Conditions,Clouds,dailyrainin,SoftwareType,DateUTC
2013-04-19 00:01:00,69.6,59.7,29.95,ENE,75,3.0,10.0,71,0.00,,,0.00,HR-IXPWINDi_r2_v1.2.,2013-04-19 04:01:00,
2013-04-19 00:06:00,69.6,59.7,29.94,NNW,338,1.0,10.0,71,0.00,,,0.00,HR-IXPWINDi_r2_v1.2.,2013-04-19 04:06:00,
2013-04-19 00:11:00,69.5,59.2,29.94,NNW,339,4.0,8.0,70,0.00,,,0.00,HR-IXPWINDi_r2_v1.2.,2013-04-19 04:11:00,
2013-04-19 00:16:00,69.5,59.6,29.94,NNW,344,1.0,8.0,71,0.00,,,0.00,HR-IXPWINDi_r2_v1.2.,2013-04-19 04:16:00,
2013-04-19 00:21:00,69.4,59.5,29.94,East,84,0.0,5.0,71,0.00,,,0.00,HR-IXPWINDi_r2_v1.2.,2013-04-19 04:21:00,
2013-04-19 00:26:00,69.3,59.4,29.94,East,89,3.0,8.0,71,0.00,,,0.00,HR-IXPWINDi_r2_v1.2.,2013-04-19 04:26:00,
2013-04-19 00:32:00,69.3,59.4,29.93,SE,128,4.0,8.0,71,0.00,,,0.00,HR-IXPWINDi_r2_v1.2.,2013-04-19 04:32:00,
2013-04-19 00:37:00,69.3,59.4,29.93,East,90,2.0,8.0,71,0.00,,,0.00,HR-IXPWINDi_r2_v1.2.,2013-04-19 04:37:00,
2013-04-19 00:42:00,69.2,59.3,29.93,North,355,4.0,8.0,71,0.00,,,0.00,HR-IXPWINDi_r2_v1.2.,2013-04-19 04:42:00,
2013-04-19 00:47:00,69.2,59.3,29.92,NE,45,2.0,7.0,71,0.00,,,0.00,HR-IXPWINDi_r2_v1.2.,2013-04-19 04:47:00,
2013-04-19 00:52:00,69.1,59.2,29.93,East,84,6.0,7.0,71,0.00,,,0.00,HR-IXPWINDi_r2_v1.2.,2013-04-19 04:52:00,
2013-04-19 00:57:00,69.1,59.2,29.92,East,86,2.0,8.0,71,0.00,,,0.00,HR-IXPWINDi_r2_v1.2.,2013-04-19 04:57:00,
2013-04-19 01:02:00,69.0,59.1,29.92,SE,131,1.0,8.0,71,0.00,,,0.00,HR-IXPWINDi_r2_v1.2.,2013-04-19 05:02:00,
2013-04-19 01:08:00,68.8,59.3,29.92,NE,49,2.0,8.0,72,0.00,,,0.00,HR-IXPWINDi_r2_v1.2.,2013-04-19 05:08:00,
2013-04-19 01:13:00,68.8,59.3,29.93,South,171,0.0,5.0,72,0.00,,,0.00,HR-IXPWINDi_r2_v1.2.,2013-04-19 05:13:00,
2013-04-19 01:18:00,68.6,59.2,29.93,ENE,65,2.0,7.0,72,0.00,,,0.00,HR-IXPWINDi_r2_v1.2.,2013-04-19 05:18:00,
2013-04-19 01:24:00,68.5,59.4,29.92,East,80,6.0,7.0,73,0.00,,,0.00,HR-IXPWINDi_r2_v1.2.,2013-04-19 05:24:00,
2013-04-19 01:29:00,68.4,59.7,29.92,ESE,113,2.0,10.0,74,0.00,,,0.00,HR-IXPWINDi_r2_v1.2.,2013-04-19 05:29:00,
2013-04-19 01:34:00,68.1,59.4,29.91,ENE,77,1.0,10.0,74,0.00,,,0.00,HR-IXPWINDi_r2_v1.2.,2013-04-19 05:34:00,
2013-04-19 01:39:00,67.9,59.6,29.91,East,98,0.0,7.0,75,0.00,,,0.00,HR-IXPWINDi_r2_v1.2.,2013-04-19 05:39:00,
2013-04-19 01:44:00,67.8,59.5,29.91,East,100,1.0,7.0,75,0.00,,,0.00,HR-IXPWINDi_r2_v1.2.,2013-04-19 05:44:00,
2013-04-19 01:49:00,67.6,59.3,29.91,East,81,0.0,5.0,75,0.00,,,0.00,HR-IXPWINDi_r2_v1.2.,2013-04-19 05:49:00,
2013-04-19 01:54:00,67.5,59.6,29.91,NW,315,1.0,5.0,76,0.00,,,0.00,HR-IXPWINDi_r2_v1.2.,2013-04-19 05:54:00,
2013-04-19 01:59:00,67.5,59.6,29.91,North,350,0.0,5.0,76,0.00,,,0.00,HR-IXPWINDi_r2_v1.2.,2013-04-19 05:59:00,
2013-04-19 02:04:00,67.4,59.5,29.91,NE,38,0.0,3.0,76,0.00,,,0.00,HR-IXPWINDi_r2_v1.2.,2013-04-19 06:04:00,
2013-04-19 02:09:00,67.3,59.8,29.90,East,97,2.0,5.0,77,0.00,,,0.00,HR-IXPWINDi_r2_v1.2.,2013-04-19 06:09:00,
2013-04-19 02:15:00,67.2,59.7,29.90,SSW,203,1.0,7.0,77,0.00,,,0.00,HR-IXPWINDi_r2_v1.2.,2013-04-19 06:15:00,
2013-04-19 02:20:00,67.1,59.6,29.90,ENE,78,0.0,7.0,77,0.00,,,0.00,HR-IXPWINDi_r2_v1.2.,2013-04-19 06:20:00,
2013-04-19 02:25:00,67.0,59.5,29.89,SE,130,1.0,4.0,77,0.00,,,0.00,HR-IXPWINDi_r2_v1.2.,2013-04-19 06:25:00,
2013-04-19 02:30:00,66.9,59.8,29.89,SSE,151,1.0,7.0,78,0.00,,,0.00,HR-IXPWINDi_r2_v1.2.,2013-04-19 06:30:00,
2013-04-19 02:36:00,66.8,59.7,29.89,East,97,3.0,7.0,78,0.00,,,0.00,HR-IXPWINDi_r2_v1.2.,2013-04-19 06:36:00,
2013-04-19 02:41:00,66.8,59.7,29.89,ENE,73,1.0,5.0,78,0.00,,,0.00,HR-IXPWINDi_r2_v1.2.,2013-04-19 06:41:00,
2013-04-19 02:46:00,66.8,60.0,29.89,NW,321,1.0,5.0,79,0.00,,,0.00,HR-IXPWINDi_r2_v1.2.,2013-04-19 06:46:00,
2013-04-19 02:51:00,66.7,59.9,29.89,SE,138,1.0,6.0,79,0.00,,,0.00,HR-IXPWINDi_r2_v1.2.,2013-04-19 06:51:00,
2013-04-19 02:57:00,66.7,59.9,29.88,SSW,192,3.0,6.0,79,0.00,,,0.00,HR-IXPWINDi_r2_v1.2.,2013-04-19 06:57:00,
2013-04-19 03:02:00,66.7,59.6,29.88,WNW,293,2.0,5.0,78,0.00,,,0.00,HR-IXPWINDi_r2_v1.2.,2013-04-19 07:02:00,
2013-04-19 03:07:00,66.7,59.6,29.88,North,355,2.0,5.0,78,0.00,,,0.00,HR-IXPWINDi_r2_v1.2.,2013-04-19 07:07:00,
2013-04-19 03:12:00,66.7,59.6,29.88,East,85,0.0,5.0,78,0.00,,,0.00,HR-IXPWINDi_r2_v1.2.,2013-04-19 07:12:00,
2013-04-19 03:17:00,66.7,59.6,29.88,NE,53,0.0,5.0,78,0.00,,,0.00,HR-IXPWINDi_r2_v1.2.,2013-04-19 07:17:00,
2013-04-19 03:23:00,66.7,59.6,29.87,East,82,2.0,5.0,78,0.00,,,0.00,HR-IXPWINDi_r2_v1.2.,2013-04-19 07:23:00,
2013-04-19 03:28:00,66.7,59.6,29.87,ESE,120,0.0,5.0,78,0.00,,,0.00,HR-IXPWINDi_r2_v1.2.,2013-04-19 07:28:00,
2013-04-19 03:33:00,66.7,59.9,29.87,East,82,0.0,5.0,79,0.00,,,0.00,HR-IXPWINDi_r2_v1.2.,2013-04-19 07:33:00,
2013-04-19 03:38:00,66.7,59.9,29.87,ESE,102,0.0,3.0,79,0.00,,,0.00,HR-IXPWINDi_r2_v1.2.,2013-04-19 07:38:00,
2013-04-19 03:43:00,66.6,59.8,29.86,West,280,0.0,3.0,79,0.00,,,0.00,HR-IXPWINDi_r2_v1.2.,2013-04-19 07:43:00,
2013-04-19 03:48:00,66.6,59.8,29.87,West,280,0.0,2.0,79,0.00,,,0.00,HR-IXPWINDi_r2_v1.2.,2013-04-19 07:48:00,
2013-04-19 03:53:00,66.6,59.8,29.86,WNW,293,0.0,1.0,79,0.00,,,0.00,HR-IXPWINDi_r2_v1.2.,2013-04-19 07:53:00,
2013-04-19 03:58:00,66.6,59.5,29.86,ESE,115,0.0,7.0,78,0.00,,,0.00,HR-IXPWINDi_r2_v1.2.,2013-04-19 07:58:00,
2013-04-19 04:03:00,66.6,59.5,29.86,ESE,115,0.0,7.0,78,0.00,,,0.00,HR-IXPWINDi_r2_v1.2.,2013-04-19 08:03:00,
2013-04-19 04:08:00,66.5,59.4,29.86,SE,124,0.0,3.0,78,0.00,,,0.00,HR-IXPWINDi_r2_v1.2.,2013-04-19 08:08:00,
2013-04-19 04:14:00,66.7,59.6,29.86,East,90,2.0,9.0,78,0.00,,,0.00,HR-IXPWINDi_r2_v1.2.,2013-04-19 08:14:00,
2013-04-19 04:19:00,66.8,60.0,29.86,ENE,76,1.0,9.0,79,0.00,,,0.00,HR-IXPWINDi_r2_v1.2.,2013-04-19 08:19:00,
2013-04-19 04:24:00,66.7,59.6,29.85,ESE,109,2.0,5.0,78,0.00,,,0.00,HR-IXPWINDi_r2_v1.2.,2013-04-19 08:24:00,
2013-04-19 04:29:00,66.6,59.5,29.85,ESE,111,0.0,3.0,78,0.00,,,0.00,HR-IXPWINDi_r2_v1.2.,2013-04-19 08:29:00,
2013-04-19 04:34:00,66.6,59.5,29.85,ESE,111,0.0,3.0,78,0.00,,,0.00,HR-IXPWINDi_r2_v1.2.,2013-04-19 08:34:00,
2013-04-19 04:39:00,66.5,59.4,29.85,ESE,111,1.0,1.0,78,0.00,,,0.00,HR-IXPWINDi_r2_v1.2.,2013-04-19 08:39:00,
2013-04-19 04:44:00,66.4,59.3,29.84,East,92,0.0,4.0,78,0.00,,,0.00,HR-IXPWINDi_r2_v1.2.,2013-04-19 08:44:00,
2013-04-19 04:49:00,66.5,59.4,29.84,ESE,117,2.0,4.0,78,0.00,,,0.00,HR-IXPWINDi_r2_v1.2.,2013-04-19 08:49:00,
2013-04-19 04:55:00,66.5,59.4,29.84,SE,140,0.0,3.0,78,0.00,,,0.00,HR-IXPWINDi_r2_v1.2.,2013-04-19 08:55:00,
2013-04-19 05:00:00,66.5,59.7,29.85,SE,141,0.0,3.0,79,0.00,,,0.00,HR-IXPWINDi_r2_v1.2.,2013-04-19 09:00:00,
2013-04-19 05:05:00,66.4,59.6,29.84,SE,141,0.0,2.0,79,0.00,,,0.00,HR-IXPWINDi_r2_v1.2.,2013-04-19 09:05:00,
2013-04-19 05:11:00,66.3,59.2,29.84,SE,128,0.0,1.0,78,0.00,,,0.00,HR-IXPWINDi_r2_v1.2.,2013-04-19 09:11:00,
2013-04-19 05:16:00,66.3,59.2,29.84,SE,128,0.0,1.0,78,0.00,,,0.00,HR-IXPWINDi_r2_v1.2.,2013-04-19 09:16:00,
2013-04-19 05:21:00,66.4,59.3,29.84,ESE,108,0.0,5.0,78,0.00,,,0.00,HR-IXPWINDi_r2_v1.2.,2013-04-19 09:21:00,
2013-04-19 05:26:00,66.5,59.4,29.83,NE,42,0.0,5.0,78,0.00,,,0.00,HR-IXPWINDi_r2_v1.2.,2013-04-19 09:26:00,
2013-04-19 05:31:00,66.5,59.7,29.84,ENE,65,0.0,2.0,79,0.00,,,0.00,HR-IXPWINDi_r2_v1.2.,2013-04-19 09:31:00,
2013-04-19 05:36:00,66.3,59.5,29.83,ENE,65,0.0,2.0,79,0.00,,,0.00,HR-IXPWINDi_r2_v1.2.,2013-04-19 09:36:00,
2013-04-19 05:42:00,66.1,59.7,29.83,ENE,65,0.0,2.0,80,0.00,,,0.00,HR-IXPWINDi_r2_v1.2.,2013-04-19 09:42:00,
2013-04-19 05:47:00,66.2,59.8,29.83,NE,47,0.0,4.0,80,0.00,,,0.00,HR-IXPWINDi_r2_v1.2.,2013-04-19 09:47:00,
2013-04-19 05:52:00,66.2,59.8,29.82,ESE,113,0.0,4.0,80,0.00,,,0.00,HR-IXPWINDi_r2_v1.2.,2013-04-19 09:52:00,
2013-04-19 05:57:00,66.1,59.7,29.83,ESE,113,0.0,2.0,80,0.00,,,0.00,HR-IXPWINDi_r2_v1.2.,2013-04-19 09:57:00,
2013-04-19 06:02:00,66.1,59.7,29.82,East,98,0.0,2.0,80,0.00,,,0.00,HR-IXPWINDi_r2_v1.2.,2013-04-19 10:02:00,
2013-04-19 06:07:00,66.1,59.7,29.82,ESE,115,0.0,2.0,80,0.00,,,0.00,HR-IXPWINDi_r2_v1.2.,2013-04-19 10:07:00,
2013-04-19 06:13:00,66.1,60.0,29.82,ESE,116,0.0,3.0,81,0.00,,,0.00,HR-IXPWINDi_r2_v1.2.,2013-04-19 10:13:00,
2013-04-19 06:18:00,66.0,60.3,29.82,ESE,116,0.0,3.0,82,0.00,,,0.00,HR-IXPWINDi_r2_v1.2.,2013-04-19 10:18:00,
2013-04-19 06:23:00,65.8,60.1,29.82,ESE,116,0.0,1.0,82,0.00,,,0.00,HR-IXPWINDi_r2_v1.2.,2013-04-19 10:23:00,
2013-04-19 06:28:00,65.7,60.0,29.82,ESE,116,0.0,1.0,82,0.00,,,0.00,HR-IXPWINDi_r2_v1.2.,2013-04-19 10:28:00,
2013-04-19 06:33:00,65.6,60.2,29.82,NE,50,0.0,2.0,83,0.00,,,0.00,HR-IXPWINDi_r2_v1.2.,2013-04-19 10:33:00,
2013-04-19 06:39:00,65.4,60.7,29.82,NE,50,0.0,2.0,85,0.00,,,0.00,HR-IXPWINDi_r2_v1.2.,2013-04-19 10:39:00,
2013-04-19 06:44:00,65.2,60.5,29.83,NE,50,0.0,1.0,85,0.00,,,0.00,HR-IXPWINDi_r2_v1.2.,2013-04-19 10:44:00,
2013-04-19 06:49:00,65.1,60.7,29.83,NE,50,0.0,0.0,86,0.00,,,0.01,HR-IXPWINDi_r2_v1.2.,2013-04-19 10:49:00,
2013-04-19 06:54:00,64.9,60.9,29.82,NE,50,0.0,0.0,87,0.00,,,0.01,HR-IXPWINDi_r2_v1.2.,2013-04-19 10:54:00,
2013-04-19 07:00:00,64.7,61.0,29.82,NE,50,0.0,0.0,88,0.00,,,0.01,HR-IXPWINDi_r2_v1.2.,2013-04-19 11:00:00,
2013-04-19 07:05:00,64.5,61.1,29.81,NE,50,0.0,1.0,89,0.00,,,0.01,HR-IXPWINDi_r2_v1.2.,2013-04-19 11:05:00,
2013-04-19 07:10:00,64.2,61.1,29.82,NE,50,0.0,1.0,90,0.00,,,0.01,HR-IXPWINDi_r2_v1.2.,2013-04-19 11:10:00,
2013-04-19 07:15:00,64.0,61.3,29.82,NE,50,0.0,0.0,91,0.00,,,0.01,HR-IXPWINDi_r2_v1.2.,2013-04-19 11:15:00,
2013-04-19 07:21:00,63.8,61.1,29.82,NE,50,0.0,0.0,91,0.00,,,0.01,HR-IXPWINDi_r2_v1.2.,2013-04-19 11:21:00,
2013-04-19 07:26:00,63.7,61.3,29.82,NE,50,0.0,0.0,92,0.00,,,0.01,HR-IXPWINDi_r2_v1.2.,2013-04-19 11:26:00,
2013-04-19 07:31:00,63.6,61.2,29.83,NE,50,0.0,0.0,92,0.00,,,0.01,HR-IXPWINDi_r2_v1.2.,2013-04-19 11:31:00,
2013-04-19 07:36:00,63.5,61.1,29.83,NE,50,0.0,0.0,92,0.00,,,0.01,HR-IXPWINDi_r2_v1.2.,2013-04-19 11:36:00,
2013-04-19 07:42:00,63.5,61.1,29.83,NE,50,0.0,1.0,92,0.00,,,0.01,HR-IXPWINDi_r2_v1.2.,2013-04-19 11:42:00,
2013-04-19 07:47:00,63.5,61.4,29.83,NE,54,0.0,2.0,93,0.00,,,0.01,HR-IXPWINDi_r2_v1.2.,2013-04-19 11:47:00,
2013-04-19 07:52:00,63.6,61.5,29.83,NE,54,0.0,2.0,93,0.00,,,0.01,HR-IXPWINDi_r2_v1.2.,2013-04-19 11:52:00,
2013-04-19 07:58:00,63.6,61.5,29.83,NE,54,0.0,1.0,93,0.00,,,0.01,HR-IXPWINDi_r2_v1.2.,2013-04-19 11:58:00,
2013-04-19 08:03:00,63.5,61.4,29.83,NE,54,0.0,1.0,93,0.00,,,0.01,HR-IXPWINDi_r2_v1.2.,2013-04-19 12:03:00,
2013-04-19 08:08:00,63.5,61.4,29.83,NE,54,0.0,0.0,93,0.00,,,0.01,HR-IXPWINDi_r2_v1.2.,2013-04-19 12:08:00,
2013-04-19 08:14:00,63.5,61.4,29.82,NE,54,0.0,2.0,93,0.00,,,0.01,HR-IXPWINDi_r2_v1.2.,2013-04-19 12:14:00,
2013-04-19 08:19:00,63.6,61.5,29.82,NE,54,0.0,2.0,93,0.00,,,0.01,HR-IXPWINDi_r2_v1.2.,2013-04-19 12:19:00,
2013-04-19 08:24:00,63.7,61.6,29.82,NE,54,0.0,1.0,93,0.00,,,0.01,HR-IXPWINDi_r2_v1.2.,2013-04-19 12:24:00,
2013-04-19 08:29:00,63.8,61.7,29.82,South,187,0.0,0.0,93,0.00,,,0.01,HR-IXPWINDi_r2_v1.2.,2013-04-19 12:29:00,
2013-04-19 08:34:00,63.9,61.8,29.81,South,187,0.0,1.0,93,0.00,,,0.01,HR-IXPWINDi_r2_v1.2.,2013-04-19 12:34:00,
2013-04-19 08:39:00,64.0,61.9,29.81,ESE,122,0.0,1.0,93,0.00,,,0.01,HR-IXPWINDi_r2_v1.2.,2013-04-19 12:39:00,
2013-04-19 08:44:00,64.1,62.0,29.81,ESE,122,0.0,0.0,93,0.00,,,0.01,HR-IXPWINDi_r2_v1.2.,2013-04-19 12:44:00,
2013-04-19 08:50:00,64.2,61.8,29.81,ESE,122,0.0,0.0,92,0.00,,,0.01,HR-IXPWINDi_r2_v1.2.,2013-04-19 12:50:00,
2013-04-19 08:55:00,64.3,61.9,29.81,ESE,122,0.0,0.0,92,0.00,,,0.01,HR-IXPWINDi_r2_v1.2.,2013-04-19 12:55:00,
2013-04-19 09:00:00,64.4,62.0,29.81,ESE,122,0.0,0.0,92,0.00,,,0.01,HR-IXPWINDi_r2_v1.2.,2013-04-19 13:00:00,
2013-04-19 09:05:00,64.6,61.5,29.81,East,101,0.0,2.0,90,0.00,,,0.01,HR-IXPWINDi_r2_v1.2.,2013-04-19 13:05:00,
2013-04-19 09:10:00,64.9,61.8,29.81,SE,127,0.0,2.0,90,0.00,,,0.01,HR-IXPWINDi_r2_v1.2.,2013-04-19 13:10:00,
2013-04-19 09:16:00,65.2,61.8,29.81,SE,127,1.0,1.0,89,0.00,,,0.01,HR-IXPWINDi_r2_v1.2.,2013-04-19 13:16:00,
2013-04-19 09:21:00,65.3,61.9,29.81,SE,127,0.0,1.0,89,0.00,,,0.01,HR-IXPWINDi_r2_v1.2.,2013-04-19 13:21:00,
2013-04-19 09:26:00,65.5,61.8,29.80,SE,127,0.0,1.0,88,0.00,,,0.01,HR-IXPWINDi_r2_v1.2.,2013-04-19 13:26:00,
2013-04-19 09:32:00,65.5,62.1,29.81,SE,127,0.0,0.0,89,0.00,,,0.01,HR-IXPWINDi_r2_v1.2.,2013-04-19 13:32:00,
2013-04-19 09:37:00,65.5,62.1,29.81,SE,127,0.0,1.0,89,0.00,,,0.01,HR-IXPWINDi_r2_v1.2.,2013-04-19 13:37:00,
2013-04-19 09:42:00,65.5,62.1,29.81,SE,126,0.0,2.0,89,0.00,,,0.01,HR-IXPWINDi_r2_v1.2.,2013-04-19 13:42:00,
2013-04-19 09:47:00,65.5,62.1,29.80,SE,126,0.0,2.0,89,0.00,,,0.01,HR-IXPWINDi_r2_v1.2.,2013-04-19 13:47:00,
2013-04-19 09:52:00,65.5,62.4,29.80,SE,126,0.0,1.0,90,0.00,,,0.01,HR-IXPWINDi_r2_v1.2.,2013-04-19 13:52:00,
2013-04-19 09:58:00,65.5,62.4,29.80,East,84,0.0,0.0,90,0.00,,,0.01,HR-IXPWINDi_r2_v1.2.,2013-04-19 13:58:00,
2013-04-19 10:03:00,65.5,62.4,29.80,SSE,148,0.0,2.0,90,0.00,,,0.01,HR-IXPWINDi_r2_v1.2.,2013-04-19 14:03:00,
2013-04-19 10:08:00,65.6,62.2,29.80,SSE,148,0.0,2.0,89,0.00,,,0.01,HR-IXPWINDi_r2_v1.2.,2013-04-19 14:08:00,
2013-04-19 10:13:00,65.7,62.3,29.79,SSW,207,0.0,2.0,89,0.00,,,0.01,HR-IXPWINDi_r2_v1.2.,2013-04-19 14:13:00,
2013-04-19 10:18:00,65.9,62.5,29.80,SSW,207,0.0,2.0,89,0.00,,,0.01,HR-IXPWINDi_r2_v1.2.,2013-04-19 14:18:00,
2013-04-19 10:23:00,66.4,62.3,29.79,SSE,161,0.0,7.0,87,0.00,,,0.01,HR-IXPWINDi_r2_v1.2.,2013-04-19 14:23:00,
2013-04-19 10:28:00,66.8,63.4,29.79,SSE,158,1.0,7.0,89,0.00,,,0.01,HR-IXPWINDi_r2_v1.2.,2013-04-19 14:28:00,
2013-04-19 10:33:00,67.1,62.4,29.79,SSE,158,0.0,2.0,85,0.00,,,0.01,HR-IXPWINDi_r2_v1.2.,2013-04-19 14:33:00,
2013-04-19 10:39:00,67.4,63.0,29.79,SSE,158,0.0,2.0,86,0.00,,,0.01,HR-IXPWINDi_r2_v1.2.,2013-04-19 14:39:00,
2013-04-19 10:44:00,67.6,62.9,29.79,SSE,158,0.0,1.0,85,0.00,,,0.01,HR-IXPWINDi_r2_v1.2.,2013-04-19 14:44:00,
2013-04-19 10:49:00,67.7,63.3,29.79,SSE,155,1.0,2.0,86,0.00,,,0.01,HR-IXPWINDi_r2_v1.2.,2013-04-19 14:49:00,
2013-04-19 10:55:00,67.8,63.4,29.79,NNE,30,0.0,4.0,86,0.00,,,0.01,HR-IXPWINDi_r2_v1.2.,2013-04-19 14:55:00,
2013-04-19 11:00:00,67.9,63.2,29.78,SE,146,0.0,4.0,85,0.00,,,0.01,HR-IXPWINDi_r2_v1.2.,2013-04-19 15:00:00,
2013-04-19 11:05:00,68.1,62.7,29.78,WSW,237,0.0,5.0,83,0.00,,,0.01,HR-IXPWINDi_r2_v1.2.,2013-04-19 15:05:00,
2013-04-19 11:10:00,68.4,62.6,29.77,SSE,150,0.0,5.0,82,0.00,,,0.01,HR-IXPWINDi_r2_v1.2.,2013-04-19 15:10:00,
2013-04-19 11:15:00,69.0,63.2,29.77,NNE,29,0.0,5.0,82,0.00,,,0.01,HR-IXPWINDi_r2_v1.2.,2013-04-19 15:15:00,
2013-04-19 11:20:00,69.7,63.5,29.76,NE,34,0.0,5.0,81,0.00,,,0.01,HR-IXPWINDi_r2_v1.2.,2013-04-19 15:20:00,
2013-04-19 11:26:00,70.1,63.6,29.76,East,81,2.0,4.0,80,0.00,,,0.01,HR-IXPWINDi_r2_v1.2.,2013-04-19 15:26:00,
2013-04-19 11:31:00,70.4,63.9,29.76,East,101,0.0,3.0,80,0.00,,,0.01,HR-IXPWINDi_r2_v1.2.,2013-04-19 15:31:00,
2013-04-19 11:36:00,70.7,62.7,29.76,NE,51,0.0,9.0,76,0.00,,,0.01,HR-IXPWINDi_r2_v1.2.,2013-04-19 15:36:00,
2013-04-19 11:41:00,70.8,63.5,29.76,South,170,2.0,10.0,78,0.00,,,0.01,HR-IXPWINDi_r2_v1.2.,2013-04-19 15:41:00,
2013-04-19 11:46:00,71.0,63.0,29.76,South,173,0.0,10.0,76,0.00,,,0.01,HR-IXPWINDi_r2_v1.2.,2013-04-19 15:46:00,
2013-04-19 11:51:00,71.2,62.8,29.76,SE,127,0.0,6.0,75,0.00,,,0.01,HR-IXPWINDi_r2_v1.2.,2013-04-19 15:51:00,
2013-04-19 11:57:00,71.5,63.1,29.76,ENE,58,1.0,5.0,75,0.00,,,0.01,HR-IXPWINDi_r2_v1.2.,2013-04-19 15:57:00,
2013-04-19 12:02:00,71.8,63.0,29.75,NE,37,3.0,4.0,74,0.00,,,0.01,HR-IXPWINDi_r2_v1.2.,2013-04-19 16:02:00,
2013-04-19 12:07:00,72.1,63.3,29.75,East,92,1.0,3.0,74,0.00,,,0.01,HR-IXPWINDi_r2_v1.2.,2013-04-19 16:07:00,
2013-04-19 12:12:00,72.1,63.3,29.75,NE,53,3.0,10.0,74,0.00,,,0.01,HR-IXPWINDi_r2_v1.2.,2013-04-19 16:12:00,
2013-04-19 12:17:00,72.0,63.2,29.75,SSE,168,1.0,10.0,74,0.00,,,0.01,HR-IXPWINDi_r2_v1.2.,2013-04-19 16:17:00,
2013-04-19 12:22:00,72.1,63.7,29.73,ENE,71,3.0,7.0,75,0.00,,,0.01,HR-IXPWINDi_r2_v1.2.,2013-04-19 16:22:00,
2013-04-19 12:28:00,72.1,64.1,29.72,East,82,0.0,5.0,76,0.00,,,0.01,HR-IXPWINDi_r2_v1.2.,2013-04-19 16:28:00,
2013-04-19 12:33:00,71.9,65.0,29.71,North,355,2.0,5.0,79,0.00,,,0.02,HR-IXPWINDi_r2_v1.2.,2013-04-19 16:33:00,
2013-04-19 12:38:00,71.6,65.8,29.71,ENE,75,2.0,4.0,82,0.00,,,0.02,HR-IXPWINDi_r2_v1.2.,2013-04-19 16:38:00,
2013-04-19 12:43:00,71.5,66.3,29.71,NE,42,1.0,4.0,84,0.00,,,0.02,HR-IXPWINDi_r2_v1.2.,2013-04-19 16:43:00,
2013-04-19 12:48:00,71.2,65.4,29.71,NNE,17,1.0,3.0,82,0.00,,,0.02,HR-IXPWINDi_r2_v1.2.,2013-04-19 16:48:00,
2013-04-19 12:54:00,71.0,63.7,29.70,NNE,27,0.0,4.0,78,0.00,,,0.02,HR-IXPWINDi_r2_v1.2.,2013-04-19 16:54:00,
2013-04-19 12:59:00,70.9,64.4,29.69,North,5,4.0,4.0,80,0.00,,,0.02,HR-IXPWINDi_r2_v1.2.,2013-04-19 16:59:00,
2013-04-19 13:04:00,70.9,64.0,29.70,NNE,28,1.0,7.0,79,0.00,,,0.02,HR-IXPWINDi_r2_v1.2.,2013-04-19 17:04:00,
2013-04-19 13:09:00,70.9,64.0,29.70,NW,312,0.0,7.0,79,0.00,,,0.02,HR-IXPWINDi_r2_v1.2.,2013-04-19 17:09:00,
2013-04-19 13:14:00,70.7,63.4,29.69,SE,131,1.0,5.0,78,0.00,,,0.02,HR-IXPWINDi_r2_v1.2.,2013-04-19 17:14:00,
2013-04-19 13:20:00,70.8,63.5,29.70,NNW,333,2.0,7.0,78,0.00,,,0.02,HR-IXPWINDi_r2_v1.2.,2013-04-19 17:20:00,
2013-04-19 13:25:00,70.7,63.4,29.70,NW,304,1.0,7.0,78,0.00,,,0.02,HR-IXPWINDi_r2_v1.2.,2013-04-19 17:25:00,
2013-04-19 13:30:00,70.9,63.6,29.69,WNW,298,1.0,8.0,78,0.00,,,0.02,HR-IXPWINDi_r2_v1.2.,2013-04-19 17:30:00,
2013-04-19 13:35:00,71.2,63.6,29.69,NNW,332,0.0,8.0,77,0.00,,,0.02,HR-IXPWINDi_r2_v1.2.,2013-04-19 17:35:00,
2013-04-19 13:40:00,71.2,63.2,29.69,East,81,3.0,9.0,76,0.00,,,0.02,HR-IXPWINDi_r2_v1.2.,2013-04-19 17:40:00,
2013-04-19 13:45:00,71.3,63.3,29.70,NW,318,0.0,9.0,76,0.00,,,0.02,HR-IXPWINDi_r2_v1.2.,2013-04-19 17:45:00,
2013-04-19 13:51:00,71.3,63.3,29.69,WSW,258,1.0,5.0,76,0.00,,,0.02,HR-IXPWINDi_r2_v1.2.,2013-04-19 17:51:00,
2013-04-19 13:56:00,71.2,62.8,29.69,SSW,202,2.0,11.0,75,0.00,,,0.02,HR-IXPWINDi_r2_v1.2.,2013-04-19 17:56:00,
2013-04-19 14:01:00,71.2,63.2,29.69,ESE,103,9.0,14.0,76,0.00,,,0.02,HR-IXPWINDi_r2_v1.2.,2013-04-19 18:01:00,
2013-04-19 14:06:00,71.3,62.9,29.69,South,190,2.0,14.0,75,0.00,,,0.02,HR-IXPWINDi_r2_v1.2.,2013-04-19 18:06:00,
2013-04-19 14:11:00,71.2,63.2,29.68,West,273,0.0,9.0,76,0.00,,,0.02,HR-IXPWINDi_r2_v1.2.,2013-04-19 18:11:00,
2013-04-19 14:16:00,71.1,63.8,29.68,NNE,19,0.0,7.0,78,0.00,,,0.02,HR-IXPWINDi_r2_v1.2.,2013-04-19 18:16:00,
2013-04-19 14:22:00,70.9,63.3,29.68,SSE,166,0.0,2.0,77,0.00,,,0.02,HR-IXPWINDi_r2_v1.2.,2013-04-19 18:22:00,
2013-04-19 14:28:00,70.9,64.0,29.68,South,190,0.0,3.0,79,0.00,,,0.02,HR-IXPWINDi_r2_v1.2.,2013-04-19 18:28:00,
2013-04-19 14:33:00,70.7,63.4,29.68,South,190,0.0,3.0,78,0.00,,,0.02,HR-IXPWINDi_r2_v1.2.,2013-04-19 18:33:00,
2013-04-19 14:38:00,70.6,63.7,29.68,West,277,0.0,2.0,79,0.00,,,0.02,HR-IXPWINDi_r2_v1.2.,2013-04-19 18:38:00,
2013-04-19 14:43:00,70.5,64.0,29.67,SSE,156,1.0,5.0,80,0.00,,,0.02,HR-IXPWINDi_r2_v1.2.,2013-04-19 18:43:00,
2013-04-19 14:48:00,70.6,64.1,29.67,WNW,295,1.0,5.0,80,0.00,,,0.02,HR-IXPWINDi_r2_v1.2.,2013-04-19 18:48:00,
2013-04-19 14:53:00,70.7,63.8,29.67,ESE,123,2.0,6.0,79,0.00,,,0.02,HR-IXPWINDi_r2_v1.2.,2013-04-19 18:53:00,
2013-04-19 14:58:00,71.0,64.8,29.67,SSW,192,0.0,6.0,81,0.00,,,0.03,HR-IXPWINDi_r2_v1.2.,2013-04-19 18:58:00,
2013-04-19 15:04:00,70.5,65.0,29.68,NW,317,2.0,11.0,83,0.30,,,0.05,HR-IXPWINDi_r2_v1.2.,2013-04-19 19:04:00,
2013-04-19 15:09:00,69.7,64.9,29.67,South,174,6.0,11.0,85,0.24,,,0.08,HR-IXPWINDi_r2_v1.2.,2013-04-19 19:09:00,
2013-04-19 15:14:00,69.0,64.9,29.67,North,5,1.0,11.0,87,0.31,,,0.10,HR-IXPWINDi_r2_v1.2.,2013-04-19 19:14:00,
2013-04-19 15:20:00,68.5,65.1,29.68,North,5,0.0,6.0,89,0.89,,,0.14,HR-IXPWINDi_r2_v1.2.,2013-04-19 19:20:00,
2013-04-19 15:25:00,68.1,64.7,29.69,SW,215,0.0,5.0,89,0.21,,,0.16,HR-IXPWINDi_r2_v1.2.,2013-04-19 19:25:00,
2013-04-19 15:30:00,67.6,65.1,29.67,SE,137,1.0,5.0,92,0.19,,,0.18,HR-IXPWINDi_r2_v1.2.,2013-04-19 19:30:00,
2013-04-19 15:35:00,67.1,64.6,29.67,South,175,0.0,4.0,92,0.25,,,0.21,HR-IXPWINDi_r2_v1.2.,2013-04-19 19:35:00,
2013-04-19 15:40:00,66.9,64.7,29.66,ENE,70,1.0,8.0,93,0.16,,,0.22,HR-IXPWINDi_r2_v1.2.,2013-04-19 19:40:00,
2013-04-19 15:46:00,66.8,64.6,29.68,NW,315,1.0,8.0,93,0.07,,,0.22,HR-IXPWINDi_r2_v1.2.,2013-04-19 19:46:00,
2013-04-19 15:51:00,66.9,64.7,29.68,NW,319,0.0,5.0,93,0.04,,,0.22,HR-IXPWINDi_r2_v1.2.,2013-04-19 19:51:00,
2013-04-19 15:56:00,67.0,64.8,29.67,ENE,59,0.0,7.0,93,0.00,,,0.22,HR-IXPWINDi_r2_v1.2.,2013-04-19 19:56:00,
2013-04-19 16:01:00,67.1,64.6,29.67,SSE,165,1.0,8.0,92,0.00,,,0.22,HR-IXPWINDi_r2_v1.2.,2013-04-19 20:01:00,
2013-04-19 16:06:00,67.1,64.6,29.66,SSE,164,1.0,9.0,92,0.00,,,0.22,HR-IXPWINDi_r2_v1.2.,2013-04-19 20:06:00,
2013-04-19 16:12:00,67.1,64.9,29.65,WNW,292,4.0,9.0,93,0.00,,,0.22,HR-IXPWINDi_r2_v1.2.,2013-04-19 20:12:00,
2013-04-19 16:17:00,67.1,64.3,29.65,ESE,104,1.0,9.0,91,0.00,,,0.22,HR-IXPWINDi_r2_v1.2.,2013-04-19 20:17:00,
2013-04-19 16:22:00,67.4,64.9,29.65,South,175,7.0,9.0,92,0.00,,,0.22,HR-IXPWINDi_r2_v1.2.,2013-04-19 20:22:00,
2013-04-19 16:27:00,67.5,64.7,29.66,NW,304,3.0,7.0,91,0.00,,,0.22,HR-IXPWINDi_r2_v1.2.,2013-04-19 20:27:00,
2013-04-19 16:33:00,67.2,64.1,29.62,North,360,0.0,7.0,90,0.00,,,0.23,HR-IXPWINDi_r2_v1.2.,2013-04-19 20:33:00,
2013-04-19 16:38:00,67.2,64.7,29.64,ENE,76,0.0,5.0,92,0.00,,,0.23,HR-IXPWINDi_r2_v1.2.,2013-04-19 20:38:00,
2013-04-19 16:43:00,67.3,65.1,29.65,East,90,5.0,5.0,93,0.00,,,0.23,HR-IXPWINDi_r2_v1.2.,2013-04-19 20:43:00,
2013-04-19 16:48:00,67.3,64.8,29.65,North,10,0.0,5.0,92,0.00,,,0.23,HR-IXPWINDi_r2_v1.2.,2013-04-19 20:48:00,
2013-04-19 16:53:00,67.4,64.9,29.66,East,83,0.0,5.0,92,0.00,,,0.23,HR-IXPWINDi_r2_v1.2.,2013-04-19 20:53:00,
2013-04-19 16:58:00,67.5,64.7,29.66,ENE,63,1.0,3.0,91,0.00,,,0.23,HR-IXPWINDi_r2_v1.2.,2013-04-19 20:58:00,
2013-04-19 17:03:00,67.5,65.0,29.66,ENE,63,1.0,3.0,92,0.00,,,0.23,HR-IXPWINDi_r2_v1.2.,2013-04-19 21:03:00,
2013-04-19 17:09:00,67.5,64.4,29.66,NW,310,2.0,5.0,90,0.00,,,0.23,HR-IXPWINDi_r2_v1.2.,2013-04-19 21:09:00,
2013-04-19 17:14:00,67.4,64.3,29.66,NW,305,2.0,5.0,90,0.00,,,0.23,HR-IXPWINDi_r2_v1.2.,2013-04-19 21:14:00,
2013-04-19 17:20:00,67.2,63.8,29.65,SSW,198,0.0,5.0,89,0.00,,,0.23,HR-IXPWINDi_r2_v1.2.,2013-04-19 21:20:00,
2013-04-19 17:25:00,67.1,64.6,29.65,WNW,303,1.0,9.0,92,0.00,,,0.23,HR-IXPWINDi_r2_v1.2.,2013-04-19 21:25:00,
2013-04-19 17:30:00,66.6,63.5,29.64,WNW,302,1.0,9.0,90,0.00,,,0.23,HR-IXPWINDi_r2_v1.2.,2013-04-19 21:30:00,
2013-04-19 17:35:00,66.3,62.9,29.64,NNW,331,1.0,5.0,89,0.00,,,0.24,HR-IXPWINDi_r2_v1.2.,2013-04-19 21:35:00,
2013-04-19 17:40:00,65.9,62.5,29.65,NNE,31,1.0,5.0,89,0.00,,,0.24,HR-IXPWINDi_r2_v1.2.,2013-04-19 21:40:00,
2013-04-19 17:45:00,65.6,61.9,29.66,SW,230,0.0,7.0,88,0.00,,,0.24,HR-IXPWINDi_r2_v1.2.,2013-04-19 21:45:00,
2013-04-19 17:50:00,65.4,61.7,29.66,South,190,0.0,8.0,88,0.00,,,0.24,HR-IXPWINDi_r2_v1.2.,2013-04-19 21:50:00,
2013-04-19 17:56:00,65.1,61.7,29.66,NNE,28,0.0,8.0,89,0.00,,,0.24,HR-IXPWINDi_r2_v1.2.,2013-04-19 21:56:00,
2013-04-19 18:01:00,65.0,61.3,29.65,North,360,3.0,7.0,88,0.00,,,0.24,HR-IXPWINDi_r2_v1.2.,2013-04-19 22:01:00,
2013-04-19 18:06:00,64.9,60.9,29.66,SSW,194,3.0,11.0,87,0.00,,,0.24,HR-IXPWINDi_r2_v1.2.,2013-04-19 22:06:00,
2013-04-19 18:11:00,64.7,61.0,29.65,South,173,1.0,11.0,88,0.00,,,0.24,HR-IXPWINDi_r2_v1.2.,2013-04-19 22:11:00,
2013-04-19 18:16:00,64.4,60.7,29.66,NNE,15,1.0,8.0,88,0.00,,,0.24,HR-IXPWINDi_r2_v1.2.,2013-04-19 22:16:00,
2013-04-19 18:22:00,64.1,60.4,29.68,ENE,73,7.0,8.0,88,0.00,,,0.24,HR-IXPWINDi_r2_v1.2.,2013-04-19 22:22:00,
2013-04-19 18:27:00,64.0,60.3,29.66,South,176,8.0,12.0,88,0.00,,,0.24,HR-IXPWINDi_r2_v1.2.,2013-04-19 22:27:00,
2013-04-19 18:32:00,64.0,60.3,29.66,WNW,288,1.0,12.0,88,0.00,,,0.24,HR-IXPWINDi_r2_v1.2.,2013-04-19 22:32:00,
2013-04-19 18:37:00,63.8,60.7,29.67,NW,314,3.0,12.0,90,0.00,,,0.24,HR-IXPWINDi_r2_v1.2.,2013-04-19 22:37:00,
2013-04-19 18:42:00,63.6,60.5,29.68,NNW,329,0.0,5.0,90,0.00,,,0.24,HR-IXPWINDi_r2_v1.2.,2013-04-19 22:42:00,
2013-04-19 18:47:00,63.4,60.3,29.68,South,179,2.0,5.0,90,0.00,,,0.24,HR-IXPWINDi_r2_v1.2.,2013-04-19 22:47:00,
2013-04-19 18:52:00,63.2,60.2,29.69,SE,136,3.0,5.0,90,0.00,,,0.24,HR-IXPWINDi_r2_v1.2.,2013-04-19 22:52:00,
2013-04-19 18:57:00,62.9,59.2,29.68,East,92,1.0,6.0,88,0.00,,,0.24,HR-IXPWINDi_r2_v1.2.,2013-04-19 22:57:00,
2013-04-19 19:03:00,62.5,58.2,29.69,North,5,0.0,6.0,86,0.00,,,0.24,HR-IXPWINDi_r2_v1.2.,2013-04-19 23:03:00,
2013-04-19 19:08:00,61.9,57.6,29.69,WNW,286,1.0,8.0,86,0.00,,,0.24,HR-IXPWINDi_r2_v1.2.,2013-04-19 23:08:00,
2013-04-19 19:13:00,61.2,56.6,29.69,NW,307,2.0,8.0,85,0.00,,,0.24,HR-IXPWINDi_r2_v1.2.,2013-04-19 23:13:00,
2013-04-19 19:19:00,60.6,56.3,29.70,ENE,70,4.0,8.0,86,0.00,,,0.24,HR-IXPWINDi_r2_v1.2.,2013-04-19 23:19:00,
2013-04-19 19:24:00,60.2,55.6,29.70,WNW,301,3.0,8.0,85,0.00,,,0.24,HR-IXPWINDi_r2_v1.2.,2013-04-19 23:24:00,
2013-04-19 19:29:00,59.8,55.2,29.70,NNE,29,0.0,5.0,85,0.00,,,0.24,HR-IXPWINDi_r2_v1.2.,2013-04-19 23:29:00,
2013-04-19 19:34:00,59.5,54.9,29.70,East,82,0.0,5.0,85,0.00,,,0.24,HR-IXPWINDi_r2_v1.2.,2013-04-19 23:34:00,
2013-04-19 19:39:00,59.2,54.6,29.71,SE,128,1.0,4.0,85,0.00,,,0.24,HR-IXPWINDi_r2_v1.2.,2013-04-19 23:39:00,
2013-04-19 19:44:00,58.8,54.6,29.71,NW,309,2.0,4.0,86,0.00,,,0.24,HR-IXPWINDi_r2_v1.2.,2013-04-19 23:44:00,
2013-04-19 19:49:00,58.5,53.9,29.72,WNW,289,0.0,4.0,85,0.00,,,0.24,HR-IXPWINDi_r2_v1.2.,2013-04-19 23:49:00,
2013-04-19 19:54:00,58.1,53.2,29.73,NW,305,1.0,5.0,84,0.00,,,0.24,HR-IXPWINDi_r2_v1.2.,2013-04-19 23:54:00,
2013-04-19 20:00:00,57.8,52.3,29.74,NNW,346,3.0,6.0,82,0.00,,,0.24,HR-IXPWINDi_r2_v1.2.,2013-04-20 00:00:00,
2013-04-19 20:05:00,57.6,52.4,29.74,NE,49,1.0,6.0,83,0.00,,,0.24,HR-IXPWINDi_r2_v1.2.,2013-04-20 00:05:00,
2013-04-19 20:10:00,57.3,51.8,29.74,NE,35,0.0,5.0,82,0.00,,,0.24,HR-IXPWINDi_r2_v1.2.,2013-04-20 00:10:00,
2013-04-19 20:15:00,57.2,52.0,29.75,SE,128,1.0,4.0,83,0.00,,,0.24,HR-IXPWINDi_r2_v1.2.,2013-04-20 00:15:00,
2013-04-19 20:20:00,57.0,51.8,29.74,NW,309,0.0,5.0,83,0.00,,,0.24,HR-IXPWINDi_r2_v1.2.,2013-04-20 00:20:00,
2013-04-19 20:26:00,56.9,51.7,29.73,WNW,302,1.0,6.0,83,0.00,,,0.24,HR-IXPWINDi_r2_v1.2.,2013-04-20 00:26:00,
2013-04-19 20:31:00,56.7,51.5,29.75,NNW,327,0.0,6.0,83,0.00,,,0.24,HR-IXPWINDi_r2_v1.2.,2013-04-20 00:31:00,
2013-04-19 20:36:00,56.6,50.8,29.76,North,5,2.0,6.0,81,0.00,,,0.24,HR-IXPWINDi_r2_v1.2.,2013-04-20 00:36:00,
2013-04-19 20:41:00,56.5,50.3,29.77,NNW,336,0.0,6.0,80,0.00,,,0.24,HR-IXPWINDi_r2_v1.2.,2013-04-20 00:41:00,
2013-04-19 20:47:00,56.4,49.9,29.77,North,351,1.0,4.0,79,0.00,,,0.24,HR-IXPWINDi_r2_v1.2.,2013-04-20 00:47:00,
2013-04-19 20:52:00,56.2,50.1,29.78,NW,317,2.0,4.0,80,0.00,,,0.24,HR-IXPWINDi_r2_v1.2.,2013-04-20 00:52:00,
2013-04-19 20:57:00,56.2,49.7,29.78,North,355,0.0,5.0,79,0.00,,,0.24,HR-IXPWINDi_r2_v1.2.,2013-04-20 00:57:00,
2013-04-19 21:02:00,56.2,49.7,29.78,NNW,340,3.0,10.0,79,0.00,,,0.24,HR-IXPWINDi_r2_v1.2.,2013-04-20 01:02:00,
2013-04-19 21:08:00,56.0,49.5,29.78,North,5,2.0,10.0,79,0.00,,,0.24,HR-IXPWINDi_r2_v1.2.,2013-04-20 01:08:00,
2013-04-19 21:13:00,55.9,49.8,29.79,NW,315,1.0,4.0,80,0.00,,,0.24,HR-IXPWINDi_r2_v1.2.,2013-04-20 01:13:00,
2013-04-19 21:18:00,55.8,49.7,29.79,NNE,24,0.0,4.0,80,0.00,,,0.24,HR-IXPWINDi_r2_v1.2.,2013-04-20 01:18:00,
2013-04-19 21:23:00,55.7,49.2,29.79,NW,317,1.0,5.0,79,0.00,,,0.24,HR-IXPWINDi_r2_v1.2.,2013-04-20 01:23:00,
2013-04-19 21:29:00,55.6,50.1,29.79,NW,318,2.0,9.0,82,0.00,,,0.24,HR-IXPWINDi_r2_v1.2.,2013-04-20 01:29:00,
2013-04-19 21:34:00,55.5,49.7,29.80,NNW,342,3.0,9.0,81,0.00,,,0.24,HR-IXPWINDi_r2_v1.2.,2013-04-20 01:34:00,
2013-04-19 21:39:00,55.4,49.3,29.81,NW,311,4.0,8.0,80,0.00,,,0.24,HR-IXPWINDi_r2_v1.2.,2013-04-20 01:39:00,
2013-04-19 21:44:00,55.3,48.5,29.81,NNW,332,3.0,5.0,78,0.00,,,0.24,HR-IXPWINDi_r2_v1.2.,2013-04-20 01:44:00,
2013-04-19 21:49:00,55.0,47.9,29.81,NNW,337,1.0,9.0,77,0.00,,,0.24,HR-IXPWINDi_r2_v1.2.,2013-04-20 01:49:00,
2013-04-19 21:54:00,54.6,47.1,29.81,North,5,1.0,9.0,76,0.00,,,0.24,HR-IXPWINDi_r2_v1.2.,2013-04-20 01:54:00,
2013-04-19 22:00:00,54.4,46.6,29.82,NE,45,2.0,9.0,75,0.00,,,0.24,HR-IXPWINDi_r2_v1.2.,2013-04-20 02:00:00,
2013-04-19 22:05:00,54.2,46.4,29.82,NNW,334,1.0,7.0,75,0.00,,,0.24,HR-IXPWINDi_r2_v1.2.,2013-04-20 02:05:00,
2013-04-19 22:10:00,54.0,46.9,29.82,NW,310,4.0,7.0,77,0.00,,,0.24,HR-IXPWINDi_r2_v1.2.,2013-04-20 02:10:00,
2013-04-19 22:15:00,53.7,46.3,29.82,NW,315,2.0,7.0,76,0.00,,,0.24,HR-IXPWINDi_r2_v1.2.,2013-04-20 02:15:00,
2013-04-19 22:20:00,53.6,46.2,29.83,NNE,14,2.0,7.0,76,0.00,,,0.24,HR-IXPWINDi_r2_v1.2.,2013-04-20 02:20:00,
2013-04-19 22:25:00,53.4,44.9,29.84,WNW,299,3.0,7.0,73,0.00,,,0.24,HR-IXPWINDi_r2_v1.2.,2013-04-20 02:25:00,
2013-04-19 22:30:00,53.2,44.0,29.84,NW,310,4.0,9.0,71,0.00,,,0.24,HR-IXPWINDi_r2_v1.2.,2013-04-20 02:30:00,
2013-04-19 22:35:00,52.8,43.6,29.84,ENE,57,5.0,9.0,71,0.00,,,0.24,HR-IXPWINDi_r2_v1.2.,2013-04-20 02:35:00,
2013-04-19 22:41:00,52.5,42.9,29.84,WNW,292,7.0,10.0,70,0.00,,,0.24,HR-IXPWINDi_r2_v1.2.,2013-04-20 02:41:00,
2013-04-19 22:46:00,52.2,44.5,29.84,NNW,336,2.0,11.0,75,0.00,,,0.24,HR-IXPWINDi_r2_v1.2.,2013-04-20 02:46:00,
2013-04-19 22:51:00,51.9,42.7,29.85,NNE,28,5.0,11.0,71,0.00,,,0.24,HR-IXPWINDi_r2_v1.2.,2013-04-20 02:51:00,
2013-04-19 22:57:00,51.7,42.6,29.84,North,5,4.0,11.0,71,0.00,,,0.24,HR-IXPWINDi_r2_v1.2.,2013-04-20 02:57:00,
2013-04-19 23:02:00,51.6,42.5,29.85,NNW,346,3.0,11.0,71,0.00,,,0.24,HR-IXPWINDi_r2_v1.2.,2013-04-20 03:02:00,
2013-04-19 23:07:00,51.4,43.0,29.85,West,279,1.0,8.0,73,0.00,,,0.24,HR-IXPWINDi_r2_v1.2.,2013-04-20 03:07:00,
2013-04-19 23:12:00,51.2,41.7,29.85,NW,310,1.0,7.0,70,0.00,,,0.24,HR-IXPWINDi_r2_v1.2.,2013-04-20 03:12:00,
2013-04-19 23:17:00,50.9,41.8,29.85,NNW,334,2.0,9.0,71,0.00,,,0.24,HR-IXPWINDi_r2_v1.2.,2013-04-20 03:17:00,
2013-04-19 23:22:00,50.8,42.8,29.86,NE,34,2.0,9.0,74,0.00,,,0.24,HR-IXPWINDi_r2_v1.2.,2013-04-20 03:22:00,
2013-04-19 23:27:00,50.6,42.2,29.86,NW,311,5.0,6.0,73,0.00,,,0.24,HR-IXPWINDi_r2_v1.2.,2013-04-20 03:27:00,
2013-04-19 23:32:00,50.6,42.2,29.86,NW,304,0.0,8.0,73,0.00,,,0.24,HR-IXPWINDi_r2_v1.2.,2013-04-20 03:32:00,
2013-04-19 23:38:00,50.4,40.9,29.86,NNW,331,4.0,8.0,70,0.00,,,0.24,HR-IXPWINDi_r2_v1.2.,2013-04-20 03:38:00,
2013-04-19 23:43:00,50.2,40.7,29.87,NW,324,4.0,9.0,70,0.00,,,0.24,HR-IXPWINDi_r2_v1.2.,2013-04-20 03:43:00,
2013-04-19 23:48:00,50.1,40.7,29.87,NW,320,3.0,10.0,70,0.00,,,0.24,HR-IXPWINDi_r2_v1.2.,2013-04-20 03:48:00,
2013-04-19 23:53:00,49.9,40.8,29.87,NE,49,5.0,10.0,71,0.00,,,0.24,HR-IXPWINDi_r2_v1.2.,2013-04-20 03:53:00,
2013-04-19 23:58:00,50.1,38.4,29.88,NW,307,3.0,8.0,64,0.00,,,0.24,HR-IXPWINDi_r2_v1.2.,2013-04-20 03:58:00,